QPF
0.13 0.11 0.12 0.10 0.10 0.10 0.07 0.06 0.05 0.04 0.05 0.06 0.06 0.05 0.05 0.05 0.06 0.05 0.04 0.04 0.03 0.04 0.04 0.03 0.03 0.03 0.02 0.02 0.02 0.02 0.02 0.02 0.01 0.01 0.01 0.01 0.01 0.02 0.03 0.02 0.02 0.02 0.01
0.11 0.09 0.10 0.14 0.15 0.11 0.07 0.05 0.04 0.04 0.05 0.05 0.05 0.04 0.04 0.05 0.06 0.05 0.04 0.03 0.02 0.02 0.04 0.03 0.03 0.03 0.02 0.01 0.01 0.01 0.02 0.03 0.02 0.02 0.01 0.01 0.01 0.02 0.02 0.02 0.01 0.01 0.01
0.07 0.08 0.11 0.11 0.12 0.09 0.07 0.06 0.06 0.05 0.04 0.04 0.05 0.05 0.05 0.06 0.06 0.06 0.04 0.03 0.02 0.02 0.03 0.03 0.03 0.03 0.03 0.02 0.01 0.01 0.02 0.02 0.02 0.02 0.02 0.02 0.02 0.02 0.03 0.02 0.01 0.01 0.01
0.06 0.08 0.08 0.08 0.08 0.07 0.07 0.07 0.06 0.05 0.04 0.04 0.05 0.05 0.05 0.05 0.05 0.04 0.04 0.04 0.03 0.04 0.04 0.04 0.04 0.03 0.03 0.02 0.02 0.02 0.02 0.03 0.03 0.03 0.03 0.04 0.04 0.03 0.03 0.02 0.02 0.02 0.01
0.05 0.06 0.06 0.06 0.07 0.06 0.05 0.05 0.05 0.04 0.04 0.05 0.06 0.05 0.05 0.04 0.04 0.05 0.05 0.05 0.06 0.06 0.05 0.04 0.04 0.03 0.03 0.04 0.03 0.03 0.04 0.05 0.05 0.06 0.06 0.05 0.04 0.03 0.03 0.02 0.02 0.02 0.02
0.05 0.06 0.06 0.05 0.06 0.06 0.04 0.05 0.04 0.03 0.03 0.04 0.05 0.06 0.06 0.06 0.07 0.08 0.09 0.08 0.07 0.06 0.05 0.05 0.05 0.04 0.04 0.04 0.04 0.05 0.07 0.07 0.07 0.07 0.07 0.05 0.03 0.03 0.03 0.02 0.02 0.02 0.01
0.05 0.07 0.08 0.06 0.04 0.03 0.04 0.04 0.04 0.04 0.04 0.04 0.05 0.05 0.05 0.06 0.09 0.10 0.12 0.11 0.10 0.09 0.07 0.08 0.07 0.06 0.07 0.05 0.05 0.06 0.06 0.06 0.06 0.08 0.07 0.05 0.04 0.03 0.03 0.02 0.02 0.02 0.01
0.06 0.08 0.07 0.05 0.03 0.03 0.03 0.04 0.04 0.04 0.04 0.04 0.04 0.05 0.05 0.05 0.08 0.12 0.14 0.12 0.10 0.10 0.09 0.09 0.09 0.08 0.09 0.07 0.06 0.05 0.05 0.05 0.06 0.06 0.05 0.03 0.03 0.03 0.03 0.03 0.02 0.02 0.01
0.06 0.08 0.07 0.06 0.04 0.04 0.04 0.04 0.03 0.04 0.04 0.05 0.05 0.07 0.07 0.09 0.15 0.19 0.19 0.17 0.14 0.13 0.13 0.11 0.08 0.06 0.08 0.08 0.07 0.07 0.07 0.07 0.08 0.07 0.05 0.04 0.03 0.03 0.03 0.03 0.02 0.02 0.01
0.06 0.07 0.06 0.06 0.06 0.04 0.04 0.04 0.04 0.04 0.05 0.09 0.12 0.13 0.13 0.14 0.20 0.25 0.25 0.21 0.17 0.15 0.13 0.11 0.10 0.08 0.08 0.10 0.08 0.07 0.06 0.05 0.05 0.05 0.04 0.03 0.03 0.02 0.03 0.03 0.03 0.03 0.02
0.07 0.07 0.05 0.05 0.06 0.06 0.07 0.07 0.06 0.05 0.06 0.08 0.09 0.12 0.15 0.16 0.15 0.16 0.20 0.18 0.15 0.14 0.11 0.09 0.08 0.07 0.07 0.08 0.08 0.06 0.05 0.05 0.04 0.04 0.04 0.04 0.04 0.03 0.04 0.04 0.05 0.05 0.05
0.05 0.05 0.04 0.04 0.05 0.06 0.07 0.08 0.07 0.05 0.06 0.07 0.06 0.09 0.15 0.18 0.17 0.15 0.17 0.17 0.15 0.13 0.13 0.09 0.07 0.07 0.06 0.06 0.05 0.06 0.07 0.08 0.06 0.05 0.04 0.04 0.04 0.04 0.04 0.04 0.04 0.04 0.05
0.04 0.03 0.03 0.04 0.05 0.06 0.08 0.09 0.08 0.07 0.06 0.06 0.06 0.07 0.09 0.11 0.13 0.13 0.12 0.13 0.13 0.11 0.11 0.11 0.10 0.08 0.06 0.05 0.06 0.06 0.06 0.05 0.05 0.04 0.04 0.04 0.04 0.04 0.04 0.04 0.04 0.04 0.04
0.05 0.05 0.04 0.04 0.04 0.05 0.08 0.08 0.08 0.07 0.08 0.07 0.06 0.07 0.08 0.10 0.10 0.10 0.10 0.10 0.11 0.11 0.12 0.12 0.11 0.11 0.09 0.07 0.06 0.05 0.05 0.04 0.04 0.04 0.04 0.04 0.04 0.04 0.04 0.04 0.04 0.04 0.04
0.04 0.05 0.06 0.07 0.07 0.06 0.06 0.05 0.05 0.05 0.05 0.06 0.06 0.06 0.07 0.07 0.07 0.06 0.06 0.08 0.08 0.09 0.10 0.09 0.08 0.07 0.07 0.05 0.04 0.03 0.03 0.03 0.04 0.03 0.03 0.03 0.03 0.03 0.04 0.03 0.03 0.04 0.04
0.06 0.07 0.08 0.09 0.08 0.07 0.06 0.05 0.05 0.04 0.04 0.04 0.05 0.05 0.05 0.05 0.05 0.04 0.05 0.06 0.06 0.07 0.06 0.07 0.07 0.05 0.04 0.02 0.02 0.02 0.02 0.02 0.02 0.02 0.02 0.02 0.02 0.02 0.03 0.03 0.03 0.03 0.03
0.07 0.06 0.08 0.10 0.09 0.07 0.06 0.06 0.04 0.04 0.04 0.04 0.04 0.05 0.05 0.06 0.05 0.04 0.04 0.04 0.04 0.04 0.04 0.04 0.03 0.02 0.02 0.02 0.02 0.01 0.01 0.01 0.01 0.01 0.01 0.01 0.01 0.02 0.02 0.02 0.03 0.03 0.03
0.08 0.06 0.05 0.07 0.08 0.08 0.07 0.07 0.06 0.05 0.04 0.04 0.05 0.07 0.07 0.06 0.06 0.05 0.04 0.04 0.03 0.04 0.04 0.03 0.02 0.01 0.02 0.01 0.01 0.01 0.01 0.01 0.00 0.00 0.00 0.00 0.01 0.01 0.01 0.01 0.02 0.02 0.02
0.06 0.06 0.05 0.06 0.06 0.07 0.07 0.07 0.07 0.08 0.07 0.05 0.05 0.07 0.08 0.06 0.05 0.04 0.05 0.05 0.05 0.04 0.03 0.02 0.02 0.01 0.01 0.01 0.01 0.01 0.01 0.01 0.01 0.01 0.01 0.01 0.01 0.01 0.01 0.01 0.01 0.01 0.02
0.05 0.07 0.07 0.05 0.04 0.04 0.04 0.05 0.07 0.09 0.08 0.07 0.07 0.07 0.06 0.04 0.02 0.02 0.02 0.02 0.02 0.01 0.01 0.01 0.01 0.01 0.01 0.01 0.01 0.01 0.02 0.02 0.02 0.02 0.02 0.02 0.02 0.01 0.01 0.01 0.02 0.02 0.02
0.01 0.03 0.03 0.03 0.03 0.03 0.03 0.04 0.06 0.07 0.07 0.09 0.10 0.11 0.09 0.05 0.03 0.03 0.03 0.03 0.02 0.01 0.01 0.01 0.00 0.01 0.01 0.01 0.01 0.01 0.01 0.01 0.01 0.02 0.02 0.02 0.02 0.02 0.02 0.02 0.02 0.02 0.02
0.02 0.02 0.02 0.03 0.03 0.04 0.05 0.06 0.07 0.08 0.08 0.09 0.11 0.13 0.13 0.09 0.07 0.04 0.03 0.03 0.02 0.01 0.01 0.01 0.02 0.02 0.02 0.02 0.01 0.01 0.01 0.01 0.01 0.01 0.01 0.01 0.01 0.01 0.01 0.01 0.01 0.01 0.01
0.05 0.04 0.03 0.03 0.04 0.04 0.04 0.04 0.06 0.09 0.11 0.11 0.12 0.13 0.12 0.11 0.10 0.08 0.06 0.04 0.04 0.03 0.03 0.03 0.03 0.02 0.02 0.02 0.02 0.02 0.02 0.01 0.01 0.01 0.01 0.01 0.01 0.01 0.01 0.01 0.02 0.02 0.03
0.07 0.06 0.04 0.04 0.04 0.04 0.04 0.05 0.07 0.10 0.10 0.10 0.10 0.11 0.10 0.10 0.11 0.12 0.09 0.06 0.05 0.04 0.03 0.03 0.02 0.02 0.02 0.02 0.02 0.02 0.01 0.01 0.01 0.01 0.01 0.01 0.01 0.02 0.02 0.03 0.03 0.03 0.03
0.04 0.03 0.03 0.03 0.03 0.03 0.03 0.04 0.06 0.09 0.11 0.11 0.10 0.10 0.10 0.10 0.09 0.08 0.08 0.07 0.05 0.04 0.03 0.03 0.02 0.02 0.02 0.02 0.02 0.02 0.01 0.01 0.01 0.01 0.01 0.01 0.01 0.01 0.01 0.02 0.02 0.02 0.02
0.04 0.04 0.03 0.02 0.02 0.02 0.02 0.04 0.07 0.09 0.10 0.09 0.07 0.06 0.06 0.06 0.05 0.05 0.04 0.04 0.04 0.03 0.03 0.03 0.04 0.04 0.03 0.03 0.03 0.02 0.01 0.01 0.01 0.01 0.01 0.01 0.01 0.01 0.01 0.01 0.01 0.01 0.01
MSLP
1013.09 1013.19 1013.18 1013.06 1012.86 1012.63 1012.40 1012.23 1012.17 1012.23 1012.42 1012.74 1013.14 1013.59 1014.05 1014.47 1014.85 1015.17 1015.43 1015.65 1015.86 1016.06 1016.28 1016.51 1016.74 1016.96 1017.16 1017.32 1017.41 1017.44 1017.39 1017.28 1017.11 1016.89 1016.64 1016.37 1016.09 1015.81 1015.55 1015.32 1015.12 1014.98 1014.91
1013.55 1013.66 1013.66 1013.57 1013.41 1013.20 1013.01 1012.87 1012.81 1012.87 1013.04 1013.31 1013.65 1014.02 1014.39 1014.72 1015.00 1015.21 1015.37 1015.49 1015.59 1015.70 1015.81 1015.95 1016.11 1016.27 1016.42 1016.56 1016.65 1016.70 1016.71 1016.66 1016.56 1016.42 1016.24 1016.02 1015.78 1015.51 1015.24 1014.97 1014.73 1014.53 1014.38
1014.13 1014.28 1014.33 1014.29 1014.17 1014.02 1013.87 1013.76 1013.72 1013.77 1013.91 1014.13 1014.40 1014.69 1014.96 1015.19 1015.35 1015.45 1015.50 1015.50 1015.49 1015.48 1015.49 1015.52 1015.58 1015.66 1015.74 1015.82 1015.89 1015.94 1015.95 1015.94 1015.90 1015.81 1015.69 1015.53 1015.33 1015.10 1014.84 1014.57 1014.31 1014.08 1013.89
1014.85 1015.06 1015.17 1015.20 1015.14 1015.05 1014.94 1014.86 1014.84 1014.89 1015.00 1015.17 1015.38 1015.58 1015.75 1015.87 1015.92 1015.91 1015.84 1015.73 1015.61 1015.49 1015.39 1015.32 1015.27 1015.25 1015.25 1015.25 1015.26 1015.26 1015.25 1015.23 1015.19 1015.13 1015.04 1014.92 1014.76 1014.56 1014.33 1014.08 1013.83 1013.59 1013.38
1015.75 1016.01 1016.19 1016.27 1016.28 1016.23 1016.18 1016.13 1016.12 1016.17 1016.26 1016.38 1016.52 1016.64 1016.72 1016.74 1016.68 1016.57 1016.40 1016.19 1015.97 1015.76 1015.56 1015.40 1015.26 1015.14 1015.04 1014.95 1014.87 1014.79 1014.72 1014.64 1014.56 1014.47 1014.37 1014.25 1014.10 1013.92 1013.72 1013.49 1013.26 1013.02 1012.81
1016.81 1017.13 1017.35 1017.48 1017.53 1017.53 1017.51 1017.49 1017.50 1017.54 1017.61 1017.69 1017.77 1017.82 1017.82 1017.75 1017.60 1017.40 1017.14 1016.86 1016.57 1016.29 1016.02 1015.78 1015.57 1015.36 1015.17 1014.99 1014.80 1014.62 1014.43 1014.26 1014.09 1013.92 1013.76 1013.60 1013.43 1013.24 1013.04 1012.82 1012.59 1012.36 1012.14
1018.04 1018.38 1018.62 1018.78 1018.85 1018.88 1018.88 1018.88 1018.89 1018.93 1018.99 1019.04 1019.07 1019.06 1018.98 1018.84 1018.62 1018.35 1018.03 1017.70 1017.36 1017.04 1016.73 1016.45 1016.18 1015.91 1015.64 1015.36 1015.07 1014.76 1014.45 1014.14 1013.84 1013.56 1013.30 1013.05 1012.82 1012.59 1012.36 1012.13 1011.88 1011.64 1011.39
1019.39 1019.72 1019.96 1020.11 1020.18 1020.21 1020.22 1020.23 1020.25 1020.29 1020.33 1020.35 1020.35 1020.28 1020.15 1019.95 1019.68 1019.36 1019.01 1018.65 1018.29 1017.95 1017.64 1017.33 1017.04 1016.73 1016.40 1016.04 1015.64 1015.22 1014.77 1014.32 1013.88 1013.46 1013.07 1012.71 1012.38 1012.07 1011.78 1011.50 1011.22 1010.93 1010.63
1020.79 1021.09 1021.29 1021.41 1021.47 1021.49 1021.49 1021.50 1021.53 1021.56 1021.59 1021.60 1021.56 1021.46 1021.28 1021.04 1020.73 1020.38 1020.01 1019.64 1019.28 1018.95 1018.64 1018.34 1018.04 1017.71 1017.34 1016.92 1016.44 1015.92 1015.35 1014.77 1014.19 1013.63 1013.10 1012.62 1012.18 1011.78 1011.41 1011.05 1010.70 1010.34 1009.97
1022.16 1022.40 1022.55 1022.63 1022.66 1022.65 1022.65 1022.66 1022.68 1022.72 1022.74 1022.73 1022.67 1022.55 1022.34 1022.07 1021.74 1021.37 1020.99 1020.62 1020.27 1019.96 1019.67 1019.38 1019.08 1018.75 1018.36 1017.90 1017.36 1016.75 1016.10 1015.41 1014.72 1014.04 1013.40 1012.81 1012.26 1011.77 1011.30 1010.85 1010.42 1009.97 1009.51
1023.42 1023.60 1023.70 1023.72 1023.71 1023.69 1023.68 1023.69 1023.71 1023.75 1023.77 1023.75 1023.68 1023.53 1023.31 1023.01 1022.67 1022.30 1021.92 1021.56 1021.22 1020.92 1020.65 1020.38 1020.08 1019.75 1019.34 1018.86 1018.28 1017.63 1016.92 1016.17 1015.40 1014.65 1013.93 1013.26 1012.63 1012.05 1011.49 1010.96 1010.42 1009.87 1009.31
1024.52 1024.64 1024.68 1024.66 1024.62 1024.59 1024.57 1024.58 1024.61 1024.65 1024.66 1024.64 1024.56 1024.40 1024.17 1023.87 1023.52 1023.15 1022.77 1022.42 1022.10 1021.81 1021.54 1021.27 1020.98 1020.63 1020.22 1019.72 1019.13 1018.46 1017.72 1016.95 1016.16 1015.37 1014.62 1013.90 1013.22 1012.57 1011.95 1011.33 1010.70 1010.05 1009.37
1025.42 1025.49 1025.48 1025.44 1025.38 1025.34 1025.33 1025.35 1025.38 1025.42 1025.44 1025.42 1025.32 1025.16 1024.92 1024.62 1024.28 1023.91 1023.55 1023.20 1022.88 1022.59 1022.31 1022.03 1021.72 1021.36 1020.93 1020.42 1019.82 1019.16 1018.43 1017.67 1016.89 1016.12 1015.37 1014.64 1013.94 1013.26 1012.58 1011.89 1011.17 1010.43 1009.64
1026.13 1026.15 1026.12 1026.07 1026.02 1025.99 1025.98 1026.01 1026.05 1026.09 1026.11 1026.07 1025.98 1025.81 1025.57 1025.28 1024.94 1024.59 1024.23 1023.89 1023.57 1023.27 1022.97 1022.66 1022.32 1021.93 1021.47 1020.95 1020.35 1019.70 1019.00 1018.28 1017.55 1016.81 1016.09 1015.39 1014.68 1013.98 1013.26 1012.51 1011.72 1010.88 1010.00
1026.65 1026.66 1026.64 1026.59 1026.56 1026.54 1026.56 1026.59 1026.64 1026.67 1026.67 1026.63 1026.52 1026.35 1026.11 1025.83 1025.50 1025.16 1024.81 1024.48 1024.15 1023.82 1023.49 1023.14 1022.76 1022.34 1021.86 1021.32 1020.73 1020.10 1019.43 1018.76 1018.08 1017.40 1016.72 1016.04 1015.34 1014.63 1013.87 1013.06 1012.20 1011.28 1010.31
1027.06 1027.07 1027.06 1027.05 1027.04 1027.05 1027.08 1027.12 1027.16 1027.18 1027.16 1027.10 1026.97 1026.78 1026.55 1026.26 1025.95 1025.62 1025.28 1024.94 1024.60 1024.25 1023.89 1023.50 1023.08 1022.62 1022.11 1021.56 1020.98 1020.37 1019.75 1019.12 1018.49 1017.85 1017.21 1016.55 1015.85 1015.11 1014.31 1013.44 1012.51 1011.52 1010.48
1027.39 1027.43 1027.45 1027.47 1027.50 1027.54 1027.58 1027.62 1027.64 1027.64 1027.59 1027.49 1027.33 1027.12 1026.87 1026.58 1026.27 1025.95 1025.62 1025.28 1024.93 1024.56 1024.17 1023.75 1023.29 1022.80 1022.27 1021.72 1021.15 1020.56 1019.98 1019.39 1018.80 1018.20 1017.57 1016.91 1016.19 1015.41 1014.55 1013.62 1012.62 1011.55 1010.45
1027.70 1027.77 1027.83 1027.89 1027.95 1028.01 1028.06 1028.09 1028.09 1028.05 1027.95 1027.81 1027.61 1027.37 1027.09 1026.79 1026.47 1026.15 1025.81 1025.47 1025.11 1024.73 1024.32 1023.88 1023.40 1022.90 1022.37 1021.82 1021.27 1020.72 1020.16 1019.61 1019.05 1018.46 1017.83 1017.14 1016.38 1015.54 1014.62 1013.61 1012.54 1011.41 1010.24
1028.02 1028.12 1028.22 1028.31 1028.40 1028.48 1028.53 1028.54 1028.51 1028.41 1028.27 1028.06 1027.81 1027.52 1027.21 1026.88 1026.55 1026.21 1025.86 1025.51 1025.14 1024.75 1024.33 1023.88 1023.41 1022.91 1022.40 1021.88 1021.36 1020.84 1020.32 1019.80 1019.25 1018.66 1018.01 1017.28 1016.47 1015.56 1014.56 1013.48 1012.34 1011.15 1009.95
1028.36 1028.48 1028.61 1028.73 1028.85 1028.93 1028.97 1028.95 1028.87 1028.73 1028.52 1028.25 1027.94 1027.60 1027.24 1026.87 1026.50 1026.13 1025.77 1025.40 1025.02 1024.62 1024.20 1023.76 1023.30 1022.83 1022.35 1021.88 1021.40 1020.93 1020.45 1019.95 1019.41 1018.81 1018.14 1017.36 1016.49 1015.51 1014.44 1013.30 1012.11 1010.88 1009.65
1028.71 1028.85 1029.00 1029.14 1029.25 1029.33 1029.34 1029.29 1029.17 1028.97 1028.70 1028.37 1028.00 1027.60 1027.18 1026.76 1026.35 1025.95 1025.55 1025.15 1024.75 1024.35 1023.93 1023.50 1023.07 1022.64 1022.21 1021.79 1021.37 1020.95 1020.51 1020.04 1019.51 1018.91 1018.20 1017.39 1016.47 1015.44 1014.32 1013.13 1011.91 1010.67 1009.43
1029.06 1029.21 1029.36 1029.49 1029.60 1029.65 1029.64 1029.55 1029.38 1029.12 1028.80 1028.41 1027.98 1027.52 1027.05 1026.59 1026.13 1025.68 1025.24 1024.81 1024.38 1023.97 1023.55 1023.14 1022.73 1022.34 1021.96 1021.60 1021.23 1020.87 1020.47 1020.03 1019.51 1018.90 1018.18 1017.34 1016.39 1015.33 1014.19 1013.00 1011.77 1010.54 1009.33
1029.39 1029.53 1029.66 1029.78 1029.86 1029.88 1029.83 1029.69 1029.47 1029.18 1028.80 1028.37 1027.89 1027.39 1026.88 1026.36 1025.86 1025.36 1024.88 1024.41 1023.96 1023.51 1023.09 1022.68 1022.30 1021.94 1021.60 1021.29 1020.97 1020.65 1020.29 1019.87 1019.37 1018.76 1018.04 1017.19 1016.23 1015.18 1014.05 1012.87 1011.68 1010.49 1009.32
1029.69 1029.80 1029.91 1029.98 1030.02 1029.99 1029.90 1029.72 1029.46 1029.13 1028.72 1028.26 1027.76 1027.23 1026.68 1026.13 1025.59 1025.06 1024.53 1024.03 1023.53 1023.07 1022.62 1022.21 1021.83 1021.49 1021.18 1020.89 1020.61 1020.31 1019.97 1019.57 1019.07 1018.47 1017.75 1016.91 1015.97 1014.94 1013.84 1012.72 1011.58 1010.46 1009.35
1029.95 1030.02 1030.08 1030.10 1030.08 1030.00 1029.86 1029.64 1029.35 1028.99 1028.56 1028.09 1027.58 1027.05 1026.49 1025.93 1025.37 1024.81 1024.25 1023.71 1023.19 1022.69 1022.22 1021.79 1021.40 1021.06 1020.75 1020.47 1020.19 1019.90 1019.56 1019.16 1018.66 1018.06 1017.34 1016.52 1015.59 1014.60 1013.56 1012.50 1011.44 1010.40 1009.37
1030.15 1030.18 1030.18 1030.14 1030.06 1029.92 1029.73 1029.47 1029.15 1028.78 1028.36 1027.90 1027.40 1026.88 1026.34 1025.79 1025.22 1024.65 1024.08 1023.51 1022.96 1022.44 1021.94 1021.49 1021.08 1020.71 1020.39 1020.09 1019.79 1019.48 1019.12 1018.70 1018.19 1017.58 1016.86 1016.04 1015.14 1014.19 1013.20 1012.21 1011.23 1010.27 1009.32
Thickness
5761 5759 5756 5754 5751 5748 5745 5744 5743 5741 5740 5738 5737 5735 5734 5732 5731 5728 5727 5725 5723 5722 5720 5719 5718 5718 5716 5715 5714 5713 5711 5709 5707 5709 5711 5713 5713 5712 5712 5711 5710 5709 5708
5761 5758 5756 5753 5750 5747 5745 5743 5742 5740 5739 5738 5737 5735 5733 5732 5730 5728 5726 5725 5723 5721 5720 5718 5717 5716 5714 5713 5712 5711 5710 5709 5707 5706 5707 5708 5709 5709 5709 5708 5708 5707 5705
5760 5757 5754 5752 5749 5747 5745 5743 5741 5739 5737 5736 5736 5734 5733 5731 5730 5728 5726 5725 5723 5721 5720 5718 5716 5714 5712 5711 5710 5710 5709 5708 5706 5704 5704 5704 5705 5705 5705 5704 5704 5703 5703
5758 5755 5752 5751 5749 5747 5744 5742 5740 5738 5736 5735 5734 5733 5732 5730 5729 5727 5725 5724 5722 5720 5719 5717 5715 5714 5712 5710 5709 5708 5706 5704 5703 5701 5700 5700 5700 5700 5700 5699 5698 5698 5698
5756 5752 5750 5749 5747 5745 5743 5741 5738 5736 5735 5734 5732 5731 5729 5728 5727 5725 5724 5722 5720 5718 5717 5716 5715 5713 5712 5710 5708 5706 5704 5701 5699 5697 5696 5695 5695 5694 5694 5694 5693 5693 5694
5753 5750 5748 5746 5744 5741 5740 5738 5736 5734 5732 5731 5729 5728 5727 5726 5726 5724 5722 5720 5718 5716 5714 5713 5712 5711 5709 5707 5706 5704 5702 5699 5696 5694 5693 5691 5691 5691 5690 5689 5687 5686 5686
5749 5746 5744 5742 5740 5738 5737 5735 5733 5731 5729 5726 5725 5724 5723 5723 5722 5721 5719 5717 5715 5713 5712 5710 5709 5708 5706 5704 5702 5700 5698 5696 5695 5692 5690 5689 5688 5687 5686 5684 5682 5681 5680
5743 5741 5740 5738 5737 5735 5733 5731 5729 5728 5725 5723 5721 5720 5719 5719 5718 5717 5715 5713 5711 5709 5707 5705 5704 5702 5701 5699 5697 5694 5692 5691 5690 5688 5686 5685 5684 5683 5681 5680 5678 5675 5674
5738 5736 5735 5734 5732 5730 5728 5727 5725 5723 5721 5718 5716 5715 5714 5713 5713 5711 5710 5708 5705 5703 5701 5699 5698 5697 5695 5693 5690 5687 5685 5683 5682 5681 5679 5677 5676 5675 5674 5672 5670 5668 5667
5733 5732 5731 5730 5728 5725 5724 5723 5721 5719 5717 5714 5712 5710 5709 5708 5707 5705 5703 5702 5699 5696 5693 5692 5690 5689 5687 5685 5683 5680 5677 5675 5675 5674 5671 5669 5668 5666 5665 5663 5662 5661 5659
5728 5727 5726 5724 5722 5720 5719 5717 5715 5713 5711 5708 5706 5705 5704 5702 5701 5699 5697 5695 5693 5689 5686 5683 5681 5680 5678 5676 5674 5672 5670 5668 5666 5664 5662 5660 5658 5657 5655 5653 5652 5650 5648
5722 5720 5718 5717 5716 5714 5712 5711 5709 5707 5704 5701 5699 5697 5696 5695 5693 5692 5690 5688 5686 5683 5678 5675 5672 5671 5669 5666 5664 5663 5661 5659 5657 5654 5652 5650 5648 5647 5645 5643 5641 5639 5636
5715 5713 5711 5709 5708 5707 5705 5703 5701 5699 5697 5695 5692 5690 5688 5687 5685 5683 5681 5679 5677 5674 5670 5666 5663 5661 5658 5656 5653 5652 5650 5648 5646 5643 5640 5638 5637 5635 5633 5632 5630 5627 5625
5707 5705 5704 5702 5699 5698 5697 5695 5693 5691 5689 5687 5685 5682 5679 5677 5676 5674 5672 5670 5667 5664 5660 5657 5653 5651 5648 5644 5642 5640 5638 5635 5633 5630 5628 5626 5624 5623 5621 5619 5617 5615 5612
5700 5698 5696 5694 5692 5689 5686 5683 5682 5681 5681 5679 5677 5674 5671 5668 5665 5664 5664 5661 5658 5655 5651 5647 5643 5640 5636 5632 5629 5626 5624 5622 5619 5617 5615 5613 5611 5609 5607 5604 5602 5599 5597
5693 5691 5688 5685 5683 5681 5677 5673 5670 5670 5669 5668 5667 5665 5661 5658 5656 5654 5652 5649 5646 5644 5641 5635 5630 5626 5623 5619 5616 5613 5611 5608 5606 5604 5602 5600 5597 5595 5592 5589 5587 5584 5582
5687 5684 5680 5678 5676 5673 5671 5668 5663 5659 5657 5655 5654 5652 5650 5647 5645 5642 5640 5637 5634 5632 5628 5622 5617 5613 5609 5606 5603 5601 5598 5595 5593 5591 5589 5586 5583 5580 5577 5575 5572 5569 5567
5680 5677 5674 5671 5668 5665 5663 5660 5657 5653 5649 5645 5641 5639 5638 5636 5633 5631 5628 5626 5621 5617 5613 5609 5604 5600 5597 5593 5590 5587 5585 5582 5580 5577 5574 5572 5569 5566 5563 5560 5557 5554 5552
5672 5668 5666 5663 5660 5657 5654 5651 5648 5644 5640 5635 5631 5627 5625 5624 5621 5618 5617 5614 5609 5604 5599 5595 5592 5588 5585 5581 5578 5574 5571 5568 5565 5563 5560 5557 5554 5551 5548 5545 5543 5539 5536
5663 5661 5658 5654 5651 5647 5645 5641 5637 5633 5630 5626 5621 5618 5615 5613 5610 5605 5602 5599 5595 5591 5586 5582 5579 5576 5572 5568 5565 5561 5558 5554 5551 5548 5545 5541 5538 5535 5533 5530 5528 5525 5522
5655 5651 5648 5645 5641 5637 5635 5631 5627 5623 5619 5614 5610 5606 5604 5602 5597 5592 5588 5584 5581 5577 5573 5569 5566 5562 5559 5555 5552 5548 5545 5541 5537 5533 5530 5527 5524 5521 5518 5515 5512 5510 5507
5645 5641 5638 5634 5630 5627 5624 5620 5616 5612 5608 5603 5598 5594 5591 5588 5583 5579 5575 5571 5567 5563 5559 5556 5552 5548 5544 5541 5537 5534 5531 5527 5523 5519 5516 5513 5510 5507 5504 5501 5499 5496 5494
5634 5631 5627 5623 5619 5615 5612 5608 5604 5600 5596 5592 5587 5582 5579 5574 5570 5565 5561 5557 5553 5549 5545 5541 5538 5534 5530 5526 5523 5519 5516 5513 5508 5505 5502 5499 5497 5494 5491 5489 5486 5484 5481
5622 5618 5615 5611 5607 5603 5600 5595 5592 5588 5584 5579 5574 5569 5565 5561 5556 5552 5548 5544 5540 5535 5532 5528 5524 5521 5517 5513 5510 5506 5502 5499 5496 5493 5489 5487 5484 5482 5479 5476 5474 5471 5469
5609 5606 5602 5598 5594 5590 5586 5582 5578 5574 5570 5566 5561 5556 5552 5548 5543 5539 5534 5531 5527 5523 5519 5515 5511 5507 5504 5501 5497 5494 5491 5488 5485 5481 5478 5475 5472 5469 5467 5464 5461 5459 5456
5595 5592 5589 5585 5581 5577 5573 5569 5565 5561 5557 5552 5548 5543 5539 5535 5530 5526 5522 5518 5515 5511 5506 5502 5498 5495 5492 5489 5485 5482 5479 5477 5474 5470 5467 5464 5461 5458 5455 5452 5450 5447 5444